Skip Page Navigation
NASA JPL Caltech
NASA Logo - Jet Propulsion Laboratory + View the NASA Portal
+ Near-Earth Object (NEO) Program
Search JPL
JPL Home Earth Solar System Stars & Galaxies Technology
JPL Solar System Dynamics
BODIES ORBITS EPHEMERIDES TOOLS PHYSICAL DATA DISCOVERY FAQ SITE MAP
JPL Small-Body Database Browser
Search: [ help ]  
8833 Acer (1989 RW)
Classification: Main-belt Asteroid          SPK-ID: 2008833
Ephemeris | Orbit Diagram | Orbital Elements | Physical Parameters | Discovery Circumstances | Close-Approach Data ]

[ hide orbit diagram ]
Orbit Diagram
Note: Make sure you have Java enabled on your browser to see the applet. This applet is provided as a 3D orbit visualization tool. The applet was implemented using 2-body methods, and hence should not be used for determining accurate long-term trajectories (over several years or decades) or planetary encounter circumstances. For accurate long-term ephemerides, please instead use our Horizons system.
Orbit Viewer

Additional Notes: the orbits shown in the applet are color coded. The planets are white lines, and the asteroid/comet is a blue line. The bright white line indicates the portion of the orbit that is above the ecliptic plane, and the darker portion is below the ecliptic plane. Likewise for the asteroid/comet orbit, the light blue indicates the portion above the ecliptic plane, and the dark blue the portion below the ecliptic plane.

Orbit Viewer applet originally written and kindly provided by Osamu Ajiki (AstroArts), and further modified by Ron Baalke (JPL).


Orbital Elements at Epoch 2456400.5 (2013-Apr-18.0) TDB
Reference: JPL 1 (heliocentric ecliptic J2000)
 Element Value Uncertainty (1-sigma)   Units 
e .1318970358697028 7.2014e-08  
a 2.873358243217851 3.2947e-08 AU
q 2.49437080794564 2.1874e-07 AU
i 9.660034138972877 9.363e-06 deg
node 214.5176417320818 4.7761e-05 deg
peri 49.29065477741083 6.3356e-05 deg
M 2.343615085998799 4.6337e-05 deg
tp 2456388.918444965935
(2013-Apr-06.41844497)
0.00022888 JED
period 1779.029260040161
4.87
3.0598e-05
8.377e-08
d
yr
n .2023575486284431 3.4804e-09 deg/d
Q 3.252345678490062 3.7292e-08 AU
  Orbit Determination Parameters
   # obs. used (total)      755  
   data-arc span      11877 days (32.52 yr)  
   first obs. used      1980-10-10  
   last obs. used      2013-04-17  
   planetary ephem.      DE405  
   SB-pert. ephem.      SB405-CPV-2  
   condition code      0  
   fit RMS      .57659  
   data source      ORB  
   producer      Otto Matic  
   solution date      2013-Apr-29 13:32:59  

Additional Information
 Earth MOID = 1.49223 AU 
 T_jup = 3.263 
[ show covariance matrix ]

Ephemeris | Orbit Diagram | Orbital Elements | Physical Parameters | Discovery Circumstances | Close-Approach Data ]

Physical Parameter Table
Parameter Symbol Value Units Sigma Reference Notes
absolute magnitude H 13.2 mag n/a PDS3 (MPC 31907)  

8833 Acer           Discovered 1989 Sept. 3 by E. W. Elst at Haute Provence.
Named for Aceraceae, the maple family, with two genera and more than 100 species. One well-known species is Acer saccharum (sugar maple), the sap of which is used for maple syrup and maple sugar.
NOTE: some special characters may not display properly (any characters within {} are an attempt to place the proper accent above a character)
Reference: 19990402/MPCPages.arcLast Updated: 2010-06-11

[ show close-approach data ]
Alternate Designations
 1989 RW = 1980 TY12 = 1987 BT3 = 1993 JB 
Ephemeris | Orbit Diagram | Orbital Elements | Physical Parameters | Discovery Circumstances | Close-Approach Data ]
ABOUT SSD CREDITS/AWARDS PRIVACY/COPYRIGHT GLOSSARY LINKS
FirstGov 2013-Jun-18 05:39 UT
(server date/time)  
NASA Home Page
Site Manager:   Donald K. Yeomans
Webmaster  Alan B. Chamberlin